2022/12/10 23:32:41+0000,-34.31,-39.78,-33.34,-37.98,-50.84,-54.30
2022/12/10 23:33:33+0000,-34.10,-39.54,-33.49,-37.71,-49.98,-53.72
2022/12/10 23:34:25+0000,-34.27,-38.54,-33.15,-37.38,-50.59,-54.33
2022/12/10 23:35:17+0000,-34.07,-39.72,-33.59,-36.85,-48.83,-54.34
2022/12/10 23:36:10+0000,-34.22,-39.34,-33.45,-37.43,-50.44,-54.41
2022/12/10 23:37:02+0000,-33.08,-39.15,-32.94,-37.78,-50.41,-54.67
2022/12/10 23:37:54+0000,-34.66,-39.92,-32.98,-37.51,-49.34,-54.99
2022/12/10 23:38:46+0000,-34.06,-40.28,-33.10,-37.86,-50.23,-54.11
2022/12/10 23:39:38+0000,-34.55,-40.46,-32.54,-38.10,-50.56,-54.17
2022/12/10 23:40:30+0000,-33.53,-39.20,-32.99,-37.62,-50.86,-54.08
2022/12/10 23:41:30+0000,-34.21,-39.25,-33.31,-37.13,-50.67,-54.40
2022/12/10 23:42:22+0000,-33.88,-40.42,-32.83,-37.25,-49.60,-54.45
2022/12/10 23:43:14+0000,-34.69,-41.01,-33.04,-38.37,-49.96,-54.73
2022/12/10 23:44:06+0000,-35.49,-40.68,-33.45,-37.33,-50.49,-54.93
2022/12/10 23:44:58+0000,-34.42,-40.47,-32.74,-38.18,-50.31,-54.36
2022/12/10 23:45:50+0000,-35.13,-40.17,-33.24,-38.43,-49.99,-54.71
2022/12/10 23:46:42+0000,-35.14,-40.86,-32.92,-38.41,-50.87,-54.60
2022/12/10 23:47:34+0000,-34.50,-41.19,-33.20,-38.67,-50.20,-54.33
2022/12/10 23:48:26+0000,-35.41,-41.00,-32.71,-38.81,-50.60,-54.00
2022/12/10 23:49:18+0000,-35.42,-41.05,-33.48,-38.23,-49.86,-54.92
2022/12/10 23:50:10+0000,-35.47,-39.88,-33.35,-36.91,-50.53,-54.18
2022/12/10 23:51:09+0000,-34.78,-40.73,-32.45,-36.46,-49.76,-54.68
2022/12/10 23:52:02+0000,-34.47,-40.12,-33.51,-37.24,-49.63,-54.93
2022/12/10 23:52:54+0000,-35.01,-39.50,-32.89,-37.08,-50.38,-54.43
2022/12/10 23:53:46+0000,-34.44,-40.10,-33.25,-36.22,-50.45,-54.17
2022/12/10 23:54:38+0000,-34.75,-40.27,-33.07,-37.01,-50.27,-54.54
2022/12/10 23:55:30+0000,-33.96,-39.31,-32.82,-37.61,-49.97,-54.39
2022/12/10 23:56:22+0000,-34.58,-40.44,-32.86,-37.11,-51.36,-54.60
2022/12/10 23:57:14+0000,-34.42,-40.94,-32.95,-37.07,-50.85,-54.13
2022/12/10 23:58:06+0000,-34.90,-40.01,-32.78,-36.83,-49.26,-54.81
2022/12/10 23:58:58+0000,-35.56,-39.47,-32.70,-36.96,-48.73,-54.34
2022/12/10 23:59:50+0000,-34.25,-40.23,-33.06,-37.03,-51.38,-54.54
2022/12/11 00:00:46+0000,-34.81,-40.16,-33.72,-37.81,-50.93,-54.14
2022/12/11 00:01:46+0000,-35.32,-40.19,-33.25,-38.09,-50.00,-54.40
2022/12/11 00:02:38+0000,-34.97,-40.27,-33.01,-36.82,-49.62,-54.45
2022/12/11 00:03:30+0000,-34.05,-39.15,-32.92,-37.04,-48.94,-54.80
2022/12/11 00:04:22+0000,-34.54,-40.03,-33.76,-37.63,-49.00,-52.77
2022/12/11 00:05:14+0000,-35.04,-40.62,-33.05,-38.22,-49.22,-53.13
2022/12/11 00:06:06+0000,-35.12,-40.12,-33.26,-37.42,-48.10,-53.07
2022/12/11 00:06:58+0000,-34.88,-40.44,-32.51,-36.86,-47.76,-52.33
2022/12/11 00:07:50+0000,-34.79,-40.37,-32.73,-36.98,-50.14,-53.34
2022/12/11 00:08:42+0000,-33.98,-40.94,-33.50,-37.05,-48.86,-53.28
2022/12/11 00:09:34+0000,-34.26,-39.24,-33.41,-37.90,-48.69,-52.38
2022/12/11 00:10:27+0000,-34.28,-40.14,-33.43,-38.13,-48.92,-52.88
2022/12/11 00:11:30+0000,-35.84,-40.55,-33.05,-37.48,-48.66,-53.68
2022/12/11 00:12:22+0000,-34.70,-41.65,-32.78,-36.47,-49.63,-52.83
2022/12/11 00:13:14+0000,-34.61,-40.58,-33.12,-37.72,-48.62,-52.86
2022/12/11 00:14:06+0000,-35.50,-41.03,-33.46,-37.83,-48.90,-53.49
2022/12/11 00:14:58+0000,-35.36,-41.11,-33.65,-37.55,-48.98,-52.89
2022/12/11 00:15:50+0000,-35.23,-40.13,-33.57,-37.56,-48.70,-54.15
2022/12/11 00:16:42+0000,-34.90,-40.94,-33.56,-36.92,-49.87,-54.79
2022/12/11 00:17:34+0000,-34.70,-40.35,-33.61,-37.45,-49.26,-54.56
2022/12/11 00:18:26+0000,-34.61,-39.76,-33.49,-37.64,-48.92,-54.60
2022/12/11 00:19:18+0000,-34.84,-40.61,-33.30,-38.05,-48.71,-54.30
2022/12/11 00:20:10+0000,-34.09,-41.17,-32.93,-37.43,-48.74,-54.41
2022/12/11 00:21:10+0000,-33.88,-41.23,-32.99,-38.05,-48.50,-54.06
2022/12/11 00:22:02+0000,-34.48,-41.12,-32.73,-37.50,-48.76,-54.40
2022/12/11 00:22:54+0000,-35.49,-40.98,-32.65,-38.61,-48.45,-54.56
2022/12/11 00:23:46+0000,-34.17,-40.92,-32.92,-37.81,-48.62,-54.38
2022/12/11 00:24:38+0000,-34.42,-40.18,-32.94,-37.73,-48.68,-54.35
2022/12/11 00:25:30+0000,-34.75,-38.62,-32.75,-38.18,-49.09,-54.05
2022/12/11 00:26:22+0000,-34.87,-39.53,-31.70,-37.59,-49.45,-54.21
2022/12/11 00:27:14+0000,-34.05,-39.92,-33.16,-38.06,-49.28,-54.18
2022/12/11 00:28:06+0000,-33.67,-39.59,-32.63,-37.79,-49.07,-54.41
2022/12/11 00:28:58+0000,-35.09,-40.04,-32.44,-37.23,-49.91,-54.02
2022/12/11 00:29:50+0000,-34.67,-40.02,-32.55,-37.71,-48.99,-54.45
2022/12/11 00:30:43+0000,-34.72,-39.11,-32.87,-37.96,-49.42,-54.21
2022/12/11 00:31:42+0000,-35.20,-40.66,-32.90,-37.69,-49.18,-54.22
2022/12/11 00:32:34+0000,-34.22,-40.85,-32.66,-38.19,-49.00,-53.50
2022/12/11 00:33:26+0000,-34.27,-40.83,-33.60,-38.24,-49.11,-54.19
2022/12/11 00:34:18+0000,-34.95,-41.20,-32.88,-38.14,-49.09,-52.94
2022/12/11 00:35:10+0000,-35.01,-40.38,-32.48,-38.47,-50.00,-54.09
2022/12/11 00:36:02+0000,-34.47,-40.16,-33.19,-37.41,-49.93,-54.12
2022/12/11 00:36:55+0000,-34.60,-40.84,-32.77,-37.17,-49.10,-54.59
2022/12/11 00:37:47+0000,-34.91,-40.77,-32.69,-37.84,-49.90,-54.43
2022/12/11 00:38:39+0000,-34.63,-39.95,-32.76,-38.12,-50.13,-54.62
2022/12/11 00:39:31+0000,-35.44,-39.82,-33.19,-37.99,-50.06,-54.34
2022/12/11 00:40:23+0000,-35.45,-41.08,-32.56,-37.31,-51.03,-54.27
2022/12/11 00:41:22+0000,-34.19,-40.87,-32.50,-37.20,-50.22,-54.76
2022/12/11 00:42:14+0000,-35.04,-40.69,-32.73,-37.86,-50.44,-53.73
2022/12/11 00:43:06+0000,-34.85,-40.37,-33.65,-38.86,-50.30,-54.38
2022/12/11 00:43:58+0000,-34.71,-39.58,-33.09,-38.15,-49.92,-54.12
2022/12/11 00:44:50+0000,-34.75,-40.84,-32.50,-38.65,-50.09,-54.28
2022/12/11 00:45:42+0000,-33.79,-40.43,-33.24,-38.38,-49.69,-54.05
2022/12/11 00:46:34+0000,-34.18,-41.24,-32.76,-38.26,-49.62,-54.64
2022/12/11 00:47:26+0000,-34.72,-40.26,-32.23,-38.79,-49.23,-54.17
2022/12/11 00:48:18+0000,-34.19,-40.32,-32.73,-37.83,-50.33,-53.85
2022/12/11 00:49:10+0000,-34.32,-40.46,-32.08,-38.16,-49.92,-54.39
2022/12/11 00:50:03+0000,-34.59,-39.43,-32.83,-37.68,-50.02,-54.53
2022/12/11 00:51:02+0000,-34.51,-40.14,-32.09,-38.26,-50.64,-54.29
2022/12/11 00:51:54+0000,-34.67,-40.71,-31.98,-38.00,-50.93,-53.93
2022/12/11 00:52:46+0000,-34.67,-40.98,-32.97,-38.09,-50.02,-54.29
2022/12/11 00:53:38+0000,-34.42,-40.80,-32.50,-38.33,-50.31,-54.75
2022/12/11 00:54:30+0000,-34.60,-39.87,-32.82,-38.02,-50.13,-54.62
2022/12/11 00:55:22+0000,-35.46,-40.00,-31.80,-38.25,-49.96,-54.62
2022/12/11 00:56:14+0000,-34.32,-39.80,-33.15,-38.20,-50.29,-53.94
2022/12/11 00:57:06+0000,-34.37,-40.48,-32.49,-38.73,-48.84,-54.76
2022/12/11 00:57:58+0000,-34.65,-40.57,-32.96,-38.36,-49.62,-53.80
2022/12/11 00:58:50+0000,-33.48,-40.37,-32.49,-38.27,-49.61,-54.32
2022/12/11 00:59:43+0000,-34.87,-44.30,-33.00,-38.51,-49.68,-54.33
2022/12/11 01:00:35+0000,-33.93,-45.43,-32.67,-38.57,-50.74,-55.35
2022/12/11 01:01:35+0000,-34.86,-44.80,-32.72,-38.81,-51.15,-55.06
2022/12/11 01:02:27+0000,-34.17,-44.72,-32.58,-38.40,-50.56,-54.94
2022/12/11 01:03:19+0000,-34.95,-44.18,-32.70,-37.35,-50.63,-54.84
2022/12/11 01:04:11+0000,-33.96,-43.48,-32.96,-39.44,-50.70,-55.06
2022/12/11 01:05:03+0000,-34.08,-44.57,-32.55,-38.70,-47.11,-52.78
2022/12/11 01:05:55+0000,-34.38,-43.48,-32.12,-37.64,-50.38,-53.50
2022/12/11 01:06:48+0000,-34.05,-44.16,-32.65,-39.23,-50.43,-52.69
2022/12/11 01:07:40+0000,-34.31,-42.11,-32.76,-38.58,-50.84,-51.64
2022/12/11 01:08:32+0000,-33.70,-39.35,-32.64,-37.95,-51.03,-49.99
2022/12/11 01:09:24+0000,-33.42,-41.37,-32.41,-38.78,-49.96,-54.11
2022/12/11 01:10:16+0000,-34.28,-39.58,-32.49,-38.54,-48.92,-53.94
2022/12/11 01:11:15+0000,-33.51,-44.73,-32.89,-37.98,-50.11,-54.16
2022/12/11 01:12:07+0000,-33.97,-45.29,-33.37,-38.89,-50.00,-53.39
2022/12/11 01:12:59+0000,-34.46,-41.99,-33.05,-38.64,-50.04,-53.73
2022/12/11 01:13:51+0000,-34.28,-45.72,-32.59,-39.17,-50.38,-53.97
2022/12/11 01:14:43+0000,-35.15,-45.04,-33.23,-38.71,-49.79,-53.83
2022/12/11 01:15:36+0000,-33.94,-45.17,-32.90,-38.35,-50.72,-53.11
2022/12/11 01:16:28+0000,-34.80,-44.88,-32.77,-38.53,-50.50,-53.30
2022/12/11 01:17:20+0000,-34.12,-45.44,-32.51,-38.87,-50.65,-54.00
2022/12/11 01:18:12+0000,-34.18,-44.50,-32.66,-39.01,-50.06,-53.46
2022/12/11 01:19:04+0000,-34.11,-43.91,-32.82,-38.44,-50.47,-53.39
2022/12/11 01:19:56+0000,-34.52,-44.38,-32.49,-38.38,-50.16,-53.14
2022/12/11 01:20:48+0000,-34.26,-44.93,-33.30,-38.35,-50.36,-53.46
2022/12/11 01:21:47+0000,-35.05,-44.15,-33.20,-38.60,-50.10,-53.54
2022/12/11 01:22:39+0000,-34.78,-44.33,-32.61,-38.14,-50.29,-53.28
2022/12/11 01:23:31+0000,-34.10,-44.85,-32.12,-38.48,-50.54,-53.74
2022/12/11 01:24:23+0000,-33.85,-44.12,-32.99,-38.59,-51.26,-53.20
2022/12/11 01:25:15+0000,-34.11,-44.41,-32.46,-38.79,-50.18,-53.73
2022/12/11 01:26:07+0000,-34.69,-44.99,-32.37,-38.53,-50.46,-53.81
2022/12/11 01:26:59+0000,-34.36,-43.67,-32.60,-38.83,-50.25,-54.18
2022/12/11 01:27:52+0000,-34.17,-45.81,-32.81,-38.90,-49.98,-55.82
2022/12/11 01:28:44+0000,-35.30,-45.08,-32.25,-38.41,-50.49,-54.84
2022/12/11 01:29:36+0000,-34.18,-46.01,-32.71,-38.43,-51.01,-54.69
2022/12/11 01:30:28+0000,-35.21,-43.45,-33.24,-38.60,-50.95,-54.74
2022/12/11 01:31:27+0000,-34.88,-44.06,-32.63,-37.99,-50.40,-54.64
2022/12/11 01:32:19+0000,-34.98,-43.85,-32.43,-38.83,-50.19,-54.60
2022/12/11 01:33:11+0000,-34.17,-43.04,-33.17,-38.15,-51.11,-54.86
2022/12/11 01:34:03+0000,-33.75,-42.44,-32.72,-38.21,-50.05,-55.31
2022/12/11 01:34:55+0000,-33.76,-43.26,-32.55,-38.96,-50.96,-55.26
2022/12/11 01:35:47+0000,-35.33,-44.30,-32.75,-38.40,-50.49,-54.22
2022/12/11 01:36:39+0000,-34.67,-44.26,-32.70,-38.68,-50.63,-54.40
2022/12/11 01:37:31+0000,-34.08,-42.52,-32.98,-38.49,-51.10,-55.11
2022/12/11 01:38:24+0000,-34.83,-43.89,-32.53,-37.06,-50.46,-54.66
2022/12/11 01:39:16+0000,-35.23,-44.46,-33.16,-39.16,-50.59,-55.15
2022/12/11 01:40:08+0000,-34.52,-44.88,-32.74,-39.32,-51.04,-54.76
2022/12/11 01:41:08+0000,-34.38,-44.82,-32.88,-37.75,-50.73,-54.29
2022/12/11 01:42:00+0000,-34.74,-42.37,-33.23,-39.16,-50.90,-55.44
2022/12/11 01:42:52+0000,-34.49,-45.00,-32.27,-38.68,-50.85,-54.81
2022/12/11 01:43:44+0000,-35.27,-44.65,-33.27,-38.77,-51.27,-54.74
2022/12/11 01:44:36+0000,-34.49,-45.69,-33.32,-38.45,-49.39,-54.64
2022/12/11 01:45:28+0000,-34.50,-42.79,-33.04,-38.37,-50.68,-54.68
2022/12/11 01:46:20+0000,-34.87,-44.62,-32.65,-38.40,-50.65,-55.36
2022/12/11 01:47:12+0000,-35.19,-43.56,-33.05,-38.68,-50.52,-54.62
2022/12/11 01:48:04+0000,-34.62,-44.07,-32.81,-38.96,-50.99,-54.73
2022/12/11 01:48:56+0000,-34.62,-42.63,-32.96,-39.10,-50.32,-55.14
2022/12/11 01:49:48+0000,-34.57,-45.01,-32.95,-38.82,-51.15,-55.22
2022/12/11 01:50:40+0000,-33.86,-44.16,-32.89,-39.12,-51.07,-54.62
2022/12/11 01:51:40+0000,-34.10,-44.00,-32.76,-38.60,-51.62,-54.62
2022/12/11 01:52:32+0000,-33.60,-41.21,-33.53,-39.29,-50.97,-54.23
2022/12/11 01:53:24+0000,-35.40,-42.10,-32.48,-37.95,-50.82,-54.76
2022/12/11 01:54:16+0000,-34.62,-45.09,-33.14,-38.99,-51.39,-55.14
2022/12/11 01:55:08+0000,-34.74,-45.38,-32.91,-38.15,-51.14,-54.84
2022/12/11 01:56:00+0000,-34.05,-43.09,-33.22,-40.23,-50.27,-54.81
2022/12/11 01:56:52+0000,-34.06,-44.77,-32.88,-39.20,-50.38,-54.68
2022/12/11 01:57:44+0000,-34.63,-44.18,-33.16,-38.04,-50.89,-54.25
2022/12/11 01:58:36+0000,-33.71,-43.63,-33.20,-38.46,-51.11,-54.03
2022/12/11 01:59:28+0000,-34.76,-42.93,-32.72,-38.07,-50.57,-55.00
2022/12/11 02:00:20+0000,-34.16,-44.89,-32.56,-37.93,-51.62,-53.80
2022/12/11 02:01:21+0000,-33.69,-45.04,-33.25,-38.21,-51.06,-54.27
2022/12/11 02:02:13+0000,-34.00,-43.81,-32.33,-38.60,-51.32,-55.23
2022/12/11 02:03:05+0000,-34.36,-44.82,-32.83,-37.86,-51.26,-54.97
2022/12/11 02:03:57+0000,-34.45,-43.65,-33.29,-38.78,-50.94,-54.54
2022/12/11 02:04:49+0000,-33.01,-45.90,-32.41,-38.89,-50.94,-54.42
2022/12/11 02:05:41+0000,-34.57,-44.50,-33.13,-39.60,-50.99,-54.74
2022/12/11 02:06:33+0000,-33.78,-42.77,-32.56,-39.17,-51.14,-54.46
2022/12/11 02:07:25+0000,-34.65,-42.72,-32.71,-38.87,-47.34,-52.46
2022/12/11 02:08:17+0000,-35.63,-44.40,-32.83,-37.77,-50.82,-52.71
2022/12/11 02:09:09+0000,-34.40,-45.31,-33.12,-38.42,-50.20,-53.73
2022/12/11 02:10:02+0000,-35.48,-41.74,-33.01,-38.60,-51.45,-54.03
2022/12/11 02:11:00+0000,-34.43,-42.36,-33.04,-38.61,-50.67,-53.66
2022/12/11 02:11:52+0000,-31.86,-43.09,-32.80,-37.69,-50.48,-53.44
2022/12/11 02:12:44+0000,-34.21,-44.95,-32.80,-38.96,-50.93,-53.67
2022/12/11 02:13:36+0000,-34.31,-45.60,-33.19,-38.93,-50.68,-53.16
2022/12/11 02:14:28+0000,-34.83,-41.97,-33.14,-38.66,-50.40,-53.63
2022/12/11 02:15:20+0000,-34.30,-45.55,-32.62,-38.72,-50.92,-53.23
2022/12/11 02:16:12+0000,-34.74,-43.71,-32.79,-38.36,-51.12,-52.93
2022/12/11 02:17:04+0000,-34.07,-42.79,-33.30,-38.16,-50.68,-52.98
2022/12/11 02:17:56+0000,-34.80,-43.35,-33.22,-39.07,-50.49,-53.28
2022/12/11 02:18:48+0000,-34.05,-44.76,-32.63,-38.50,-51.13,-52.41
2022/12/11 02:19:41+0000,-34.38,-44.95,-33.16,-37.91,-50.67,-53.41
2022/12/11 02:20:33+0000,-33.74,-44.20,-32.80,-38.14,-50.56,-53.80
2022/12/11 02:21:32+0000,-34.63,-42.11,-33.43,-38.59,-51.36,-53.04
2022/12/11 02:22:24+0000,-34.12,-42.24,-33.13,-38.52,-50.63,-52.63
2022/12/11 02:23:16+0000,-34.57,-43.89,-33.05,-39.17,-50.00,-53.27
2022/12/11 02:24:08+0000,-34.47,-44.21,-32.24,-37.81,-50.98,-53.50
2022/12/11 02:25:00+0000,-35.03,-42.12,-32.81,-38.61,-50.85,-52.31
2022/12/11 02:25:52+0000,-34.06,-43.09,-33.16,-38.45,-50.92,-53.20
2022/12/11 02:26:44+0000,-34.31,-41.56,-33.36,-37.94,-50.92,-53.56
2022/12/11 02:27:36+0000,-34.90,-45.25,-33.67,-39.15,-50.92,-52.43
2022/12/11 02:28:28+0000,-34.00,-44.24,-33.68,-38.78,-51.11,-52.77
2022/12/11 02:29:20+0000,-33.34,-45.04,-33.92,-39.17,-50.26,-53.27
2022/12/11 02:30:12+0000,-33.41,-44.72,-33.72,-38.36,-50.22,-53.37
2022/12/11 02:31:12+0000,-34.15,-44.28,-33.62,-39.11,-50.81,-53.54
2022/12/11 02:32:04+0000,-35.02,-44.47,-33.63,-38.19,-50.40,-53.48
2022/12/11 02:32:56+0000,-33.64,-45.55,-33.24,-39.26,-50.99,-52.84
2022/12/11 02:33:48+0000,-33.63,-44.50,-33.42,-38.41,-48.88,-53.29
2022/12/11 02:34:40+0000,-34.38,-44.64,-32.68,-38.22,-50.56,-53.29
2022/12/11 02:35:32+0000,-33.37,-43.80,-33.05,-37.86,-49.12,-52.97
2022/12/11 02:36:24+0000,-33.60,-44.14,-33.05,-38.65,-50.13,-52.91
2022/12/11 02:37:16+0000,-33.12,-44.31,-33.75,-38.59,-48.71,-53.15
2022/12/11 02:38:08+0000,-33.69,-44.83,-32.90,-38.58,-48.55,-53.41
2022/12/11 02:39:00+0000,-34.31,-44.36,-33.12,-38.54,-48.82,-52.58
2022/12/11 02:39:52+0000,-33.62,-45.77,-33.10,-38.52,-49.65,-53.57
2022/12/11 02:40:44+0000,-34.41,-43.98,-33.14,-38.24,-49.48,-52.79
2022/12/11 02:41:44+0000,-34.29,-44.78,-33.11,-38.48,-49.39,-53.18
2022/12/11 02:42:36+0000,-34.44,-45.79,-33.42,-38.08,-49.27,-53.30
2022/12/11 02:43:28+0000,-33.78,-44.96,-33.27,-38.19,-49.43,-53.18
2022/12/11 02:44:20+0000,-33.99,-44.99,-33.79,-37.39,-49.16,-53.23
2022/12/11 02:45:12+0000,-33.73,-42.60,-33.15,-38.28,-49.29,-52.96
2022/12/11 02:46:04+0000,-34.05,-43.52,-33.11,-37.55,-49.56,-53.14
2022/12/11 02:46:56+0000,-33.14,-42.35,-33.43,-38.23,-49.06,-53.10
2022/12/11 02:47:48+0000,-34.04,-43.77,-33.05,-38.58,-49.05,-52.81
2022/12/11 02:48:40+0000,-34.01,-43.88,-32.98,-37.99,-49.60,-53.14
2022/12/11 02:49:32+0000,-34.09,-43.29,-33.03,-38.01,-50.02,-53.32
2022/12/11 02:50:24+0000,-34.12,-44.11,-33.60,-37.62,-49.18,-52.82
2022/12/11 02:51:24+0000,-34.36,-43.42,-32.96,-37.89,-50.11,-53.04
2022/12/11 02:52:16+0000,-34.11,-44.62,-32.78,-37.36,-49.46,-52.87
2022/12/11 02:53:08+0000,-34.34,-44.31,-33.13,-38.23,-49.44,-53.13
2022/12/11 02:54:00+0000,-34.34,-42.87,-32.71,-38.37,-48.91,-53.61
2022/12/11 02:54:52+0000,-33.71,-44.20,-32.69,-37.58,-48.89,-52.62
2022/12/11 02:55:44+0000,-34.66,-43.66,-32.63,-37.86,-49.50,-53.33
2022/12/11 02:56:36+0000,-34.21,-44.69,-32.62,-37.62,-49.25,-52.79
2022/12/11 02:57:28+0000,-33.72,-44.69,-33.15,-38.09,-48.90,-52.90
2022/12/11 02:58:20+0000,-33.05,-42.68,-33.60,-38.59,-49.23,-53.07
2022/12/11 02:59:12+0000,-34.13,-42.96,-32.76,-37.71,-49.59,-52.30
2022/12/11 03:00:04+0000,-34.60,-43.87,-32.86,-37.61,-49.49,-52.88
2022/12/11 03:01:07+0000,-35.00,-43.56,-32.61,-37.63,-49.79,-52.70
2022/12/11 03:01:59+0000,-35.52,-43.65,-33.29,-38.08,-49.30,-53.25
2022/12/11 03:02:51+0000,-34.35,-44.46,-32.91,-37.54,-48.92,-52.87
2022/12/11 03:03:43+0000,-35.54,-41.75,-32.53,-38.93,-49.53,-52.89
2022/12/11 03:04:35+0000,-34.71,-44.19,-33.03,-37.61,-49.85,-52.81
2022/12/11 03:05:27+0000,-34.46,-43.19,-33.50,-38.44,-49.66,-53.50
2022/12/11 03:06:19+0000,-33.92,-42.95,-33.53,-38.61,-49.56,-52.65
2022/12/11 03:07:11+0000,-34.56,-42.86,-33.14,-37.51,-49.61,-53.03
2022/12/11 03:08:03+0000,-34.24,-43.44,-33.48,-37.80,-49.33,-53.06
2022/12/11 03:08:55+0000,-33.01,-43.54,-33.20,-37.52,-49.11,-52.91
2022/12/11 03:09:47+0000,-34.28,-41.23,-33.08,-38.46,-47.48,-53.23
2022/12/11 03:10:39+0000,-34.85,-41.64,-33.14,-37.60,-49.14,-53.02
2022/12/11 03:11:39+0000,-34.28,-42.83,-32.70,-38.07,-49.01,-52.08
2022/12/11 03:12:31+0000,-34.93,-44.69,-33.40,-37.87,-49.30,-52.65
2022/12/11 03:13:23+0000,-34.65,-43.12,-33.03,-37.28,-49.88,-52.75
2022/12/11 03:14:15+0000,-34.81,-43.08,-33.45,-38.84,-50.27,-53.34
2022/12/11 03:15:07+0000,-34.54,-43.55,-33.58,-37.59,-49.08,-52.55
2022/12/11 03:15:59+0000,-34.23,-43.30,-33.07,-37.28,-49.85,-52.96
2022/12/11 03:16:51+0000,-34.87,-44.97,-33.77,-38.29,-49.65,-53.00
2022/12/11 03:17:43+0000,-34.72,-44.68,-32.95,-37.87,-49.59,-53.06
2022/12/11 03:18:35+0000,-35.22,-43.70,-32.96,-37.95,-50.38,-52.95
2022/12/11 03:19:27+0000,-33.78,-42.26,-32.91,-37.07,-49.64,-53.48
2022/12/11 03:20:19+0000,-34.20,-44.84,-33.27,-38.50,-49.45,-53.03
2022/12/11 03:21:19+0000,-33.07,-43.59,-32.93,-37.97,-50.07,-52.95
2022/12/11 03:22:11+0000,-33.71,-44.45,-33.01,-37.45,-49.53,-53.12
2022/12/11 03:23:03+0000,-33.85,-44.21,-33.56,-38.41,-49.05,-52.83
2022/12/11 03:23:55+0000,-33.82,-44.36,-33.69,-37.66,-49.13,-52.86
2022/12/11 03:24:47+0000,-34.68,-43.12,-33.42,-38.15,-49.10,-52.51
2022/12/11 03:25:39+0000,-34.99,-43.83,-33.56,-37.15,-49.36,-53.37
2022/12/11 03:26:31+0000,-34.47,-44.12,-32.97,-37.55,-49.26,-53.04
2022/12/11 03:27:23+0000,-33.20,-43.85,-33.28,-38.05,-47.26,-50.71
2022/12/11 03:28:15+0000,-34.22,-44.40,-33.13,-37.92,-49.54,-52.37
2022/12/11 03:29:07+0000,-33.08,-44.87,-33.70,-37.21,-49.13,-53.41
2022/12/11 03:29:59+0000,-33.94,-44.95,-33.59,-37.73,-49.83,-53.29
2022/12/11 03:30:51+0000,-34.59,-43.74,-33.72,-36.60,-49.56,-54.18
2022/12/11 03:31:50+0000,-35.18,-44.10,-33.52,-37.05,-50.68,-54.12
2022/12/11 03:32:42+0000,-34.07,-44.04,-33.21,-37.74,-50.29,-54.70
2022/12/11 03:33:34+0000,-33.93,-45.26,-33.05,-37.53,-49.35,-54.09
2022/12/11 03:34:26+0000,-35.14,-44.39,-33.38,-38.41,-49.71,-54.41
2022/12/11 03:35:18+0000,-33.66,-44.41,-33.40,-38.21,-50.02,-54.11
2022/12/11 03:36:10+0000,-33.39,-44.04,-32.89,-37.41,-50.15,-53.91
2022/12/11 03:37:02+0000,-34.13,-43.40,-33.47,-38.92,-49.99,-53.81
2022/12/11 03:37:54+0000,-34.35,-43.11,-32.88,-38.16,-50.24,-53.97
2022/12/11 03:38:46+0000,-35.17,-45.45,-33.31,-38.35,-49.52,-54.01
2022/12/11 03:39:38+0000,-33.58,-44.70,-33.64,-38.79,-49.17,-53.99
2022/12/11 03:40:31+0000,-33.89,-42.89,-33.10,-38.13,-49.64,-54.03
2022/12/11 03:41:30+0000,-34.90,-42.56,-33.20,-37.81,-49.74,-53.96
2022/12/11 03:42:22+0000,-33.33,-45.43,-32.91,-37.67,-49.74,-53.91
2022/12/11 03:43:14+0000,-34.77,-43.78,-32.78,-38.36,-49.56,-53.86
2022/12/11 03:44:06+0000,-34.61,-44.74,-33.50,-38.18,-50.19,-54.55
2022/12/11 03:44:59+0000,-34.74,-42.86,-32.96,-37.39,-50.31,-54.38
2022/12/11 03:45:51+0000,-34.87,-44.55,-33.32,-37.88,-49.52,-54.06
2022/12/11 03:46:43+0000,-34.00,-43.59,-33.02,-38.20,-50.97,-54.09
2022/12/11 03:47:35+0000,-34.40,-43.53,-33.26,-37.23,-50.64,-54.84
2022/12/11 03:48:27+0000,-35.28,-42.91,-31.98,-37.66,-50.23,-54.52
2022/12/11 03:49:19+0000,-35.96,-42.94,-32.93,-38.33,-50.70,-55.01
2022/12/11 03:50:11+0000,-33.60,-44.15,-32.26,-36.92,-51.14,-55.46
2022/12/11 03:51:10+0000,-34.23,-43.20,-32.32,-37.63,-50.92,-55.14
2022/12/11 03:52:02+0000,-34.81,-43.07,-32.85,-37.30,-50.70,-55.28
2022/12/11 03:52:54+0000,-35.37,-42.19,-32.65,-38.00,-50.17,-54.60
2022/12/11 03:53:46+0000,-35.41,-42.16,-32.28,-37.55,-50.48,-54.72
2022/12/11 03:54:38+0000,-35.11,-42.49,-33.11,-36.69,-50.54,-55.28
2022/12/11 03:55:31+0000,-35.43,-42.41,-32.96,-36.55,-50.03,-55.13
2022/12/11 03:56:23+0000,-34.11,-43.33,-32.66,-37.24,-49.44,-55.47
2022/12/11 03:57:15+0000,-35.58,-41.02,-32.17,-36.98,-50.18,-54.71
2022/12/11 03:58:07+0000,-34.01,-43.68,-32.22,-37.33,-49.29,-55.31
2022/12/11 03:58:59+0000,-34.12,-42.35,-32.07,-36.87,-49.39,-54.83
2022/12/11 03:59:51+0000,-33.58,-42.26,-33.14,-36.78,-49.08,-55.04
2022/12/11 04:00:43+0000,-34.69,-41.25,-32.19,-36.93,-49.69,-55.03
2022/12/11 04:01:43+0000,-34.16,-40.66,-32.29,-36.83,-49.36,-55.57
2022/12/11 04:02:35+0000,-33.51,-42.87,-32.41,-37.17,-49.35,-55.10
2022/12/11 04:03:27+0000,-34.21,-42.33,-32.69,-37.54,-49.12,-54.93
2022/12/11 04:04:19+0000,-34.83,-41.00,-32.13,-37.02,-45.29,-51.95
2022/12/11 04:05:11+0000,-34.40,-40.67,-32.45,-37.21,-47.37,-52.08
2022/12/11 04:06:03+0000,-35.02,-41.71,-32.07,-36.57,-47.10,-51.82
2022/12/11 04:06:55+0000,-34.77,-41.97,-31.91,-36.81,-46.78,-51.46
2022/12/11 04:07:47+0000,-35.18,-41.30,-32.05,-37.33,-46.94,-52.67
2022/12/11 04:08:39+0000,-34.54,-40.77,-32.51,-37.60,-47.37,-52.78
2022/12/11 04:09:31+0000,-34.81,-41.39,-31.92,-37.05,-47.74,-52.29
2022/12/11 04:10:23+0000,-34.69,-42.49,-32.35,-36.66,-47.79,-52.69
2022/12/11 04:11:22+0000,-34.19,-41.94,-32.46,-36.65,-48.94,-52.27
2022/12/11 04:12:14+0000,-34.54,-40.79,-32.34,-36.82,-48.77,-51.89
2022/12/11 04:13:06+0000,-35.29,-42.55,-31.85,-36.32,-49.07,-52.55
2022/12/11 04:13:58+0000,-34.14,-41.94,-32.22,-37.44,-48.97,-52.49
2022/12/11 04:14:50+0000,-33.88,-42.39,-32.54,-36.53,-49.27,-52.64
2022/12/11 04:15:42+0000,-34.20,-42.51,-32.94,-37.12,-48.24,-52.86
2022/12/11 04:16:34+0000,-34.25,-42.40,-32.39,-35.69,-48.40,-53.08
2022/12/11 04:17:26+0000,-35.64,-42.62,-32.50,-37.32,-49.15,-52.60
2022/12/11 04:18:19+0000,-35.29,-41.24,-31.91,-37.79,-48.64,-52.85
2022/12/11 04:19:11+0000,-35.36,-41.56,-31.86,-37.04,-49.06,-52.95
2022/12/11 04:20:03+0000,-34.24,-41.58,-32.14,-38.08,-49.52,-52.84
2022/12/11 04:21:02+0000,-34.92,-41.69,-31.66,-38.02,-49.13,-53.21
2022/12/11 04:21:54+0000,-35.29,-42.88,-31.98,-37.46,-49.55,-52.77
2022/12/11 04:22:46+0000,-34.97,-42.65,-31.51,-37.48,-49.30,-52.83
2022/12/11 04:23:38+0000,-35.22,-43.02,-31.93,-37.39,-49.52,-52.40
2022/12/11 04:24:30+0000,-35.52,-42.80,-32.19,-38.24,-49.74,-53.02
2022/12/11 04:25:22+0000,-35.33,-42.71,-31.90,-37.64,-49.07,-53.08
2022/12/11 04:26:14+0000,-35.40,-43.83,-32.46,-38.48,-50.27,-52.69
2022/12/11 04:27:06+0000,-35.74,-43.34,-32.12,-37.73,-49.38,-52.91
2022/12/11 04:27:58+0000,-35.01,-42.44,-31.40,-37.51,-49.90,-52.93
2022/12/11 04:28:51+0000,-34.89,-42.73,-32.07,-37.53,-49.64,-53.22
2022/12/11 04:29:43+0000,-36.08,-42.79,-32.50,-37.30,-49.05,-52.91
2022/12/11 04:30:35+0000,-35.33,-42.40,-32.42,-37.95,-49.95,-52.81
2022/12/11 04:31:34+0000,-34.97,-43.05,-32.08,-37.89,-50.03,-54.99
2022/12/11 04:32:26+0000,-34.76,-42.94,-31.96,-37.71,-49.84,-54.82
2022/12/11 04:33:18+0000,-34.76,-42.97,-32.40,-37.63,-50.08,-54.61
2022/12/11 04:34:10+0000,-36.00,-42.68,-32.34,-37.71,-50.06,-54.52
2022/12/11 04:35:02+0000,-34.91,-42.37,-31.85,-37.44,-49.74,-54.42
2022/12/11 04:35:54+0000,-34.22,-42.75,-31.67,-37.77,-49.74,-54.71
2022/12/11 04:36:46+0000,-34.62,-42.67,-31.98,-37.75,-49.98,-55.30
2022/12/11 04:37:38+0000,-34.86,-43.77,-32.37,-37.02,-49.72,-53.93
2022/12/11 04:38:30+0000,-35.15,-42.56,-32.84,-37.65,-49.54,-54.18
2022/12/11 04:39:22+0000,-34.85,-42.91,-32.27,-38.08,-49.14,-54.32
2022/12/11 04:40:14+0000,-34.28,-42.58,-32.39,-38.16,-50.20,-54.59
2022/12/11 04:41:15+0000,-34.95,-42.52,-32.07,-37.98,-48.58,-51.87
2022/12/11 04:42:07+0000,-34.79,-42.98,-32.02,-37.90,-49.70,-53.38
2022/12/11 04:42:59+0000,-34.60,-42.83,-31.90,-37.65,-49.56,-52.96
2022/12/11 04:43:51+0000,-34.92,-42.99,-32.17,-37.87,-49.14,-53.16
2022/12/11 04:44:43+0000,-35.08,-42.60,-32.37,-37.61,-50.11,-53.27
2022/12/11 04:45:35+0000,-34.82,-42.45,-32.46,-37.88,-50.03,-53.68
2022/12/11 04:46:27+0000,-34.85,-42.24,-32.45,-37.00,-49.86,-53.12